Home   Weather   Arnstadt   Past weeks

Flag for Germany Past Weather in Arnstadt, Thuringia, Germany — Yesterday and Last 2 Weeks

Now
45 °F

Broken clouds.


Feels Like: 41 °F
Forecast: 36 / 51 °F
Wind: 6 mph from South

Location: Erfurt-Bindersleben

Current Time: Apr 27, 2017 at 9:17:29 pm

Latest Report: Apr 27, 2017 at 8:20 pm


Visibility: N/A

Pressure: 29.95 "Hg

Humidity: 76%

Dew Point: 37 °F

Location of ArnstadtLocation

Past Weather in Arnstadt — Graph

°F

Arnstadt Temperature Yesterday

Maximum temperature yesterday: 48 °F (at 5:50 pm)
Minimum temperature yesterday: 36 °F (at 1:50 am)
Average temperature yesterday: 41 °F

High & Low Weather Summary for the Past Weeks

 TemperatureHumidityPressure
High57 °F (Apr 24, 3:20 pm)100% (Apr 15, 5:20 pm)30.57 "Hg (Apr 15, 5:20 pm)
Low27 °F (Apr 20, 5:50 am)39% (Apr 24, 5:20 pm)29.62 "Hg (Apr 25, 4:20 am)
Average42 °F76%30.06 "Hg
* Reported Apr 12 7:20 pm — Apr 27 7:50 pm, Arnstadt, Weather by CustomWeather, © 2017

Note: Actual official high and low records may vary slightly from our data, if they occured in-between our weather recording intervals... More about our weather records

Advertising

Arnstadt Weather History for the Previous 24 Hours

Scroll right to see more
 ConditionsComfort  
Time TempWeatherWind HumidityBarometerVisibility
7:50 pm
Thu, Apr 27
45 °FBroken clouds.7 mph76%29.92 "HgN/A
7:20 pm46 °FBroken clouds.7 mph71%29.92 "HgN/A
6:50 pm46 °FPartly sunny.8 mph66%29.92 "HgN/A
6:20 pm46 °FScattered clouds.10 mph71%29.95 "HgN/A
5:50 pm46 °FBroken clouds.10 mph71%29.95 "HgN/A
5:20 pm46 °FScattered clouds.10 mph71%29.95 "HgN/A
4:50 pm48 °FScattered clouds.6 mph66%29.95 "HgN/A
4:20 pm46 °FScattered clouds.7 mph66%29.95 "HgN/A
3:50 pm45 °FSprinkles. Partly sunny.7 mph66%29.95 "HgN/A
3:20 pm46 °FScattered clouds.6 mph66%29.95 "HgN/A
2:50 pm48 °FScattered clouds.7 mph58%29.95 "HgN/A
2:20 pm52 °FScattered clouds.5 mph54%29.95 "HgN/A
1:50 pm48 °FScattered showers. Scattered clouds.5 mph58%29.95 "HgN/A
1:20 pm48 °FScattered showers. Scattered clouds.5 mph58%29.95 "HgN/A
12:50 pm46 °FScattered showers. Scattered clouds.3 mph62%29.95 "HgN/A
12:20 pm50 °FScattered clouds.6 mph58%29.95 "HgN/A
11:50 am48 °FScattered clouds.6 mph62%29.95 "HgN/A
11:20 am46 °FScattered clouds.8 mph66%29.95 "HgN/A
10:50 am46 °FScattered clouds.7 mph62%29.95 "HgN/A
10:20 am45 °FScattered clouds.5 mph66%29.95 "HgN/A
9:50 am43 °FScattered clouds.3 mph66%29.95 "HgN/A
9:20 am43 °FScattered clouds.3 mph76%29.95 "HgN/A
8:50 am39 °FSunny.5 mph81%29.95 "Hg10 mi
8:20 am37 °FBroken clouds.3 mph87%29.95 "HgN/A
7:50 am36 °FPartly sunny.3 mph87%29.92 "HgN/A
6:50 am32 °FSunny.6 mph93%29.92 "Hg10 mi
6:20 am30 °FSunny.7 mph93%29.92 "Hg10 mi
5:50 am30 °FClear.7 mph93%29.92 "Hg10 mi
5:20 am30 °FClear.7 mph93%29.89 "Hg10 mi
4:50 am30 °FClear.7 mph93%29.89 "Hg10 mi
3:50 am32 °FClear.6 mph87%29.89 "Hg10 mi
3:20 am32 °FClear.7 mph87%29.89 "Hg10 mi
2:50 am32 °FClear.7 mph87%29.89 "Hg10 mi
2:20 am32 °FClear.8 mph87%29.89 "Hg10 mi
1:50 am34 °FClear.7 mph87%29.89 "Hg10 mi
12:50 am34 °FClear.8 mph87%29.89 "Hg10 mi
11:50 pm
Wed, Apr 26
37 °FClear.8 mph81%29.89 "Hg10 mi
11:20 pm36 °FClear.8 mph81%29.89 "Hg10 mi
10:50 pm39 °FClear.7 mph75%29.89 "Hg10 mi
10:20 pm39 °FClear.7 mph75%29.89 "Hg10 mi
9:50 pm39 °FClear.7 mph75%29.89 "Hg10 mi
9:20 pm41 °FClear.6 mph70%29.89 "Hg10 mi
Weather by CustomWeather, © 2017

See weather overviewHow to use our weather pages